| time (UTC) | temp F | wind direction | speed MPH | gust MPH | rain 1hr in | rain 24hr in | rain mn in | humidity % | barometer mb |
| 20260901091554 | 65 | 0 | 0.0 | 2.0 | 0.01 | 0.55 | 0.05 | 98 | 1015.5 |
| 20260901084558 | 65 | 196 | 1.0 | 2.0 | 0.05 | 0.55 | 0.05 | 98 | 1015.8 |
| 20260901083054 | 65 | 153 | 0.0 | 1.0 | 0.05 | 0.55 | 0.05 | 97 | 1016.1 |
| 20260901081551 | 65 | 0 | 0.0 | 2.0 | 0.04 | 0.54 | 0.04 | 97 | 1016.5 |
| 20260901074555 | 65 | 265 | 0.0 | 2.0 | 0.00 | 0.50 | 0.00 | 98 | 1016.5 |
| 20260901073055 | 65 | 0 | 0.0 | 2.0 | 0.00 | 0.50 | 0.00 | 98 | 1016.4 |
| 20260901071559 | 65 | 0 | 0.0 | 2.0 | 0.00 | 0.50 | 0.00 | 98 | 1016.3 |
| 20260901070106 | 65 | 0 | 0.0 | 2.0 | 0.00 | 0.50 | 0.00 | 97 | 1016.6 |
| 20260901064555 | 65 | 215 | 0.0 | 2.0 | 0.00 | 0.50 | 0.00 | 97 | 1016.6 |
| 20260901063053 | 65 | 0 | 0.0 | 2.0 | 0.00 | 0.50 | 0.00 | 97 | 1016.5 |
| 20260901061552 | 65 | 232 | 0.0 | 2.0 | 0.00 | 0.50 | 0.00 | 97 | 1016.7 |
| 20260901060058 | 65 | 238 | 0.0 | 2.0 | 0.00 | 0.50 | 0.00 | 97 | 1016.7 |
| 20260901054554 | 65 | 0 | 0.0 | 2.0 | 0.00 | 0.50 | 0.00 | 97 | 1017.1 |
| 20260901053101 | 65 | 0 | 0.0 | 2.0 | 0.00 | 0.50 | 0.00 | 97 | 1017.2 |
| 20260901051555 | 65 | 221 | 0.0 | 2.0 | 0.00 | 0.50 | 0.00 | 97 | 1017.2 |
| 20260901050053 | 65 | 0 | 0.0 | 1.0 | 0.00 | 0.50 | 0.00 | 97 | 1017.2 |
| 20260901044553 | 65 | 0 | 0.0 | 2.0 | 0.00 | 0.50 | 0.00 | 97 | 1017.3 |
| 20260901043058 | 65 | 221 | 0.0 | 2.0 | 0.00 | 0.50 | 0.00 | 97 | 1017.4 |
| 20260901041613 | 65 | 0 | 0.0 | 2.0 | 0.00 | 0.50 | 0.00 | 97 | 1017.5 |
| 20260901040107 | 65 | 0 | 0.0 | 1.0 | 0.00 | 0.50 | 0.00 | 97 | 1017.4 |
| 20260901034558 | 65 | 221 | 0.0 | 1.0 | 0.00 | 0.50 | 0.50 | 97 | 1017.4 |
| 20260901033053 | 65 | 0 | 0.0 | 2.0 | 0.00 | 0.50 | 0.50 | 97 | 1017.5 |
| 20260901031557 | 65 | 232 | 0.0 | 2.0 | 0.01 | 0.50 | 0.50 | 97 | 1017.5 |
| 20260901030054 | 65 | 0 | 0.0 | 1.0 | 0.01 | 0.50 | 0.50 | 97 | 1017.5 |
| 20260901024553 | 65 | 0 | 0.0 | 1.0 | 0.01 | 0.50 | 0.50 | 97 | 1017.5 |
| 20260901023058 | 65 | 0 | 0.0 | 1.0 | 0.01 | 0.50 | 0.50 | 97 | 1017.6 |
| 20260901021557 | 65 | 0 | 0.0 | 1.0 | 0.03 | 0.49 | 0.49 | 97 | 1017.8 |
| 20260901020058 | 65 | 0 | 0.0 | 1.0 | 0.04 | 0.49 | 0.49 | 97 | 1017.7 |
| 20260901014603 | 65 | 226 | 0.0 | 2.0 | 0.10 | 0.49 | 0.49 | 97 | 1017.8 |
| 20260901013102 | 65 | 59 | 0.0 | 2.0 | 0.11 | 0.49 | 0.49 | 97 | 1018.2 |
| 20260901011606 | 65 | 67 | 0.0 | 1.0 | 0.08 | 0.46 | 0.46 | 97 | 1018.0 |
| 20260901010106 | 65 | 178 | 0.0 | 2.0 | 0.08 | 0.45 | 0.45 | 97 | 1017.7 |
| 20260901004555 | 65 | 0 | 0.0 | 1.0 | 0.03 | 0.39 | 0.39 | 97 | 1017.8 |
| 20260901003056 | 65 | 0 | 0.0 | 2.0 | 0.03 | 0.38 | 0.38 | 97 | 1017.6 |
| 20260901001555 | 65 | 232 | 0.0 | 2.0 | 0.03 | 0.38 | 0.38 | 97 | 1017.5 |
| 20260901000059 | 65 | 0 | 0.0 | 2.0 | 0.03 | 0.37 | 0.37 | 97 | 1017.5 |
| 20260831234558 | 65 | 0 | 0.0 | 2.0 | 0.02 | 0.36 | 0.36 | 97 | 1017.6 |
| 20260831233108 | 65 | 0 | 0.0 | 2.0 | 0.01 | 0.35 | 0.35 | 97 | 1017.6 |
| 20260831231551 | 65 | 196 | 0.0 | 2.0 | 0.01 | 0.35 | 0.35 | 97 | 1017.7 |
| 20260831230058 | 65 | 205 | 0.0 | 2.0 | 0.01 | 0.34 | 0.34 | 97 | 1017.9 |
| 20260831224553 | 65 | 238 | 0.0 | 3.0 | 0.02 | 0.34 | 0.34 | 97 | 1018.0 |
| 20260831223101 | 65 | 137 | 0.0 | 2.0 | 0.02 | 0.34 | 0.34 | 97 | 1018.1 |
| 20260831221559 | 65 | 162 | 0.0 | 2.0 | 0.02 | 0.34 | 0.34 | 97 | 1018.4 |
| 20260831220058 | 65 | 247 | 0.0 | 2.0 | 0.01 | 0.33 | 0.33 | 97 | 1018.5 |
| 20260831214603 | 65 | 0 | 0.0 | 1.0 | 0.02 | 0.32 | 0.32 | 97 | 1018.7 |
| 20260831213101 | 65 | 0 | 0.0 | 2.0 | 0.04 | 0.32 | 0.32 | 97 | 1018.6 |
| 20260831211556 | 64 | 0 | 0.0 | 2.0 | 0.04 | 0.32 | 0.32 | 97 | 1018.7 |
| 20260831210104 | 64 | 0 | 0.0 | 2.0 | 0.05 | 0.32 | 0.32 | 97 | 1018.7 |
| 20260831204602 | 64 | 0 | 0.0 | 2.0 | 0.03 | 0.30 | 0.30 | 97 | 1018.7 |
| 20260831203056 | 64 | 247 | 0.0 | 2.0 | 0.06 | 0.28 | 0.28 | 97 | 1018.8 |
| 20260831201553 | 64 | 178 | 0.0 | 2.0 | 0.08 | 0.28 | 0.28 | 97 | 1018.6 |
| 20260831194623 | 64 | 205 | 0.0 | 2.0 | 0.07 | 0.26 | 0.26 | 97 | 1019.0 |
| 20260831193054 | 64 | 0 | 0.0 | 2.0 | 0.03 | 0.22 | 0.22 | 96 | 1019.0 |
| 20260831191553 | 64 | 0 | 1.0 | 2.0 | 0.01 | 0.20 | 0.20 | 96 | 1019.0 |
| 20260831184555 | 64 | 205 | 0.0 | 2.0 | 0.00 | 0.19 | 0.19 | 96 | 1019.5 |
| 20260831183053 | 64 | 168 | 0.0 | 2.0 | 0.01 | 0.19 | 0.19 | 96 | 1019.7 |
| 20260831181552 | 63 | 0 | 0.0 | 2.0 | 0.02 | 0.19 | 0.19 | 96 | 1019.8 |
| 20260831174554 | 63 | 178 | 1.0 | 2.0 | 0.05 | 0.19 | 0.19 | 95 | 1020.2 |
| 20260831173057 | 63 | 232 | 1.0 | 2.0 | 0.05 | 0.18 | 0.18 | 95 | 1020.4 |
| 20260831171602 | 64 | 212 | 0.0 | 2.0 | 0.06 | 0.17 | 0.17 | 95 | 1020.5 |
| 20260831164556 | 64 | 205 | 0.0 | 2.0 | 0.14 | 0.14 | 0.14 | 94 | 1020.7 |
| 20260831163107 | 64 | 205 | 0.0 | 2.0 | 0.13 | 0.13 | 0.13 | 94 | 1020.9 |
| 20260831161602 | 64 | 0 | 0.0 | 2.0 | 0.10 | 0.10 | 0.10 | 92 | 1020.9 |
| 20260831160056 | 65 | 0 | 0.0 | 2.0 | 0.02 | 0.02 | 0.02 | 90 | 1021.1 |
| 20260831154613 | 65 | 0 | 0.0 | 1.0 | 0.00 | 0.00 | 0.00 | 88 | 1021.0 |
| 20260831153052 | 65 | 162 | 0.0 | 2.0 | 0.00 | 0.00 | 0.00 | 88 | 1020.9 |
| 20260831151558 | 65 | 162 | 0.0 | 2.0 | 0.00 | 0.00 | 0.00 | 88 | 1020.8 |
| 20260831150052 | 65 | 170 | 1.0 | 2.0 | 0.00 | 0.00 | 0.00 | 88 | 1020.7 |
| 20260831144610 | 65 | 168 | 0.0 | 4.0 | 0.00 | 0.00 | 0.00 | 89 | 1020.6 |
| 20260831143059 | 65 | 185 | 1.0 | 3.0 | 0.00 | 0.00 | 0.00 | 89 | 1020.7 |
| 20260831141553 | 64 | 142 | 1.0 | 3.0 | 0.00 | 0.00 | 0.00 | 90 | 1020.5 |
| 20260831140051 | 64 | 153 | 0.0 | 2.0 | 0.00 | 0.00 | 0.00 | 92 | 1020.8 |
| 20260831134559 | 63 | 44 | 1.0 | 4.0 | 0.00 | 0.00 | 0.00 | 94 | 1020.6 |
| 20260831133054 | 63 | 93 | 0.0 | 2.0 | 0.00 | 0.00 | 0.00 | 95 | 1020.8 |
| 20260831131556 | 62 | 76 | 0.0 | 2.0 | 0.00 | 0.00 | 0.00 | 96 | 1021.0 |
| 20260831130121 | 61 | 178 | 0.0 | 2.0 | 0.00 | 0.00 | 0.00 | 96 | 1021.1 |
| 20260831124552 | 60 | 119 | 1.0 | 2.0 | 0.00 | 0.00 | 0.00 | 96 | 1020.8 |
| 20260831123053 | 60 | 126 | 0.0 | 2.0 | 0.00 | 0.00 | 0.00 | 96 | 1020.9 |
| 20260831121603 | 60 | 0 | 0.0 | 2.0 | 0.00 | 0.00 | 0.00 | 96 | 1021.1 |
| 20260831120054 | 60 | 93 | 1.0 | 2.0 | 0.00 | 0.00 | 0.00 | 96 | 1021.1 |
| 20260831114553 | 60 | 0 | 0.0 | 1.0 | 0.00 | 0.00 | 0.00 | 96 | 1021.0 |
| 20260831113101 | 59 | 0 | 0.0 | 1.0 | 0.00 | 0.00 | 0.00 | 96 | 1021.0 |
| 20260831111552 | 59 | 0 | 0.0 | 2.0 | 0.00 | 0.00 | 0.00 | 96 | 1020.8 |
| 20260831110055 | 59 | 22 | 0.0 | 2.0 | 0.00 | 0.00 | 0.00 | 95 | 1020.7 |
| 20260831104557 | 59 | 93 | 1.0 | 2.0 | 0.00 | 0.00 | 0.00 | 96 | 1020.4 |
| 20260831103054 | 59 | 0 | 0.0 | 2.0 | 0.00 | 0.00 | 0.00 | 96 | 1020.3 |
| 20260831101601 | 59 | 144 | 0.0 | 2.0 | 0.00 | 0.00 | 0.00 | 96 | 1020.3 |
| 20260831100100 | 59 | 0 | 0.0 | 1.0 | 0.00 | 0.00 | 0.00 | 96 | 1020.4 |
| 20260831094553 | 59 | 205 | 0.0 | 2.0 | 0.00 | 0.00 | 0.00 | 95 | 1020.3 |
| 20260831093054 | 59 | 178 | 0.0 | 2.0 | 0.00 | 0.00 | 0.00 | 96 | 1020.3 |